Temperature
20 20 20 20 18 17 19 19 19 19 19 18 18 18 18 17 17 17 17 17 17 17 17 17 17 17 17 17 17 17 17 17 17 17 17 17 17 17 17 17 17 17 17 17 17 17 17 17 17
20 20 20 20 17 18 19 19 19 19 19 19 18 18 17 16 17 17 17 17 17 17 17 17 17 17 17 17 17 17 17 17 17 17 17 17 16 16 16 16 16 17 17 17 17 17 17 17 17
20 20 20 17 18 18 19 19 19 19 19 19 18 18 17 17 17 17 17 17 17 17 17 17 17 17 17 17 17 17 17 17 16 16 16 16 16 16 16 16 16 16 16 16 16 17 17 17 17
20 20 20 17 19 19 19 19 19 19 19 19 18 17 17 17 18 18 17 17 17 17 17 17 17 17 17 17 17 16 16 16 16 16 16 16 16 16 16 16 15 15 16 16 16 16 16 16 16
20 20 18 18 19 19 19 19 19 18 18 18 18 17 17 17 18 18 17 17 17 17 17 17 17 17 16 16 16 16 16 16 16 16 15 15 15 15 15 15 15 15 15 15 16 16 16 16 16
20 18 17 18 19 19 19 19 19 18 18 18 18 17 17 17 18 17 17 17 17 17 17 17 16 16 16 16 16 16 16 15 15 15 15 15 15 15 15 15 15 15 15 15 15 16 16 16 16
19 16 18 18 18 19 19 19 18 18 18 18 18 16 17 17 17 17 17 17 17 17 17 16 16 16 16 16 16 16 16 15 15 15 15 15 15 15 15 15 15 15 15 15 15 16 16 16 16
19 16 18 18 18 19 19 19 18 18 18 18 18 17 17 17 17 17 17 17 17 17 17 16 16 16 16 16 16 16 15 15 15 15 15 15 15 15 15 15 15 15 15 15 15 15 16 16 16
19 16 17 18 18 19 19 19 19 19 18 18 18 18 18 17 17 17 17 17 17 17 17 16 16 16 16 16 16 16 16 15 15 15 15 15 15 15 15 15 15 15 15 15 15 15 15 16 16
19 17 18 19 19 18 18 19 18 18 18 18 18 18 18 17 17 17 17 17 17 17 17 17 16 16 16 16 16 16 15 15 15 15 15 15 15 15 15 15 15 15 15 15 15 15 15 16 16
19 18 19 19 19 19 19 18 18 18 17 18 18 18 18 17 18 18 18 18 17 17 17 17 16 16 16 16 16 16 16 15 15 15 15 15 15 15 15 15 15 15 15 15 15 15 15 16 16
18 19 19 19 20 19 19 18 18 18 19 19 19 18 18 18 18 18 18 18 18 17 17 17 17 16 16 16 16 16 16 16 16 15 15 15 15 15 15 15 15 15 15 15 15 15 16 16 16
19 19 19 19 20 19 19 18 18 18 19 19 18 18 18 18 18 18 18 18 18 18 17 17 17 17 16 16 16 16 16 16 16 15 15 15 15 15 15 15 15 15 15 15 15 15 15 15 16
19 19 19 19 19 19 18 18 18 18 19 18 18 18 18 18 18 18 18 18 18 18 17 17 17 17 17 16 16 16 16 16 16 15 15 15 15 15 15 15 15 15 15 15 15 15 15 15 15
19 18 18 18 19 19 19 18 17 18 19 18 18 18 18 18 18 18 18 18 18 18 18 17 17 17 17 16 16 16 16 16 15 15 15 15 15 15 15 15 15 15 15 15 15 15 15 15 15
18 17 17 18 18 19 19 17 18 18 18 18 18 18 18 18 18 18 18 18 18 18 18 17 17 17 17 16 16 16 16 16 15 15 15 15 15 15 15 15 15 15 15 15 15 15 15 15 15
17 17 17 18 18 18 18 18 18 18 18 18 18 18 18 18 18 18 18 18 18 18 18 18 17 17 17 16 16 16 16 15 15 15 15 15 15 15 15 15 15 15 15 15 15 15 15 15 15
17 17 17 17 18 18 17 17 17 18 18 18 18 18 18 18 19 19 19 18 18 18 18 18 17 17 17 16 16 16 16 15 15 15 15 15 15 15 15 15 15 15 15 15 15 15 15 15 15
17 17 17 17 18 18 17 17 17 17 17 17 17 18 18 19 19 19 19 18 18 18 18 18 17 17 17 16 16 16 16 15 15 15 15 15 15 15 15 15 15 15 15 15 15 15 15 15 15
17 17 17 17 18 18 17 17 17 17 17 18 18 18 18 19 19 19 19 19 18 18 18 18 18 17 17 17 16 16 16 15 15 15 15 15 15 15 15 15 15 15 15 15 15 15 15 15 15
17 17 17 17 17 17 17 17 17 17 17 18 18 19 19 19 19 19 19 19 19 18 18 18 18 17 17 17 16 16 16 15 15 15 15 15 15 15 15 15 15 15 15 15 15 15 15 15 15
17 17 17 17 16 15 17 16 16 16 16 17 18 18 19 19 19 19 19 19 19 19 18 18 18 17 17 17 16 16 16 16 15 15 15 15 15 15 15 15 15 15 15 15 15 15 15 15 15
17 17 17 16 16 15 16 15 15 16 16 16 17 18 19 19 19 19 19 19 19 19 18 18 18 17 17 17 16 16 16 16 15 15 15 15 15 15 15 15 15 15 15 15 15 15 15 15 15
17 16 15 14 14 15 16 15 15 15 16 17 18 18 19 19 19 19 19 19 19 19 18 18 18 17 17 17 17 16 16 16 16 15 15 15 15 15 15 15 15 15 15 15 15 15 15 15 15
16 15 15 15 14 15 16 15 16 17 17 18 18 19 19 20 19 19 19 19 19 19 19 18 18 18 17 17 17 16 16 16 16 16 15 15 15 15 15 15 15 15 15 15 15 15 15 15 15
16 15 15 15 15 15 15 15 16 18 18 19 19 19 19 20 20 20 20 20 19 19 19 18 18 18 18 17 17 17 16 16 16 16 15 15 15 15 15 15 15 15 15 15 15 15 15 15 15
16 15 15 14 15 15 15 15 16 18 17 17 18 19 19 19 20 20 20 20 20 19 19 19 18 18 18 17 17 17 17 16 16 16 16 15 15 15 15 15 15 15 15 15 15 15 14 14 15
16 15 14 14 15 15 15 16 16 17 17 17 17 18 19 19 20 20 20 20 20 19 19 19 18 18 18 18 17 17 17 16 16 16 16 16 15 15 15 15 15 15 15 15 15 14 14 14 14
15 15 14 13 14 15 15 16 17 17 17 17 17 18 19 19 20 20 20 20 20 19 19 19 18 18 18 18 17 17 17 17 16 16 16 16 15 15 15 15 15 15 15 14 14 14 14 14 14
16 16 14 15 15 14 14 15 18 17 17 18 18 18 19 19 20 20 20 20 20 19 19 19 18 18 18 18 17 17 17 17 17 16 16 16 16 15 15 15 15 15 15 14 14 14 14 14 14
Wind_Speed
9 3 3 3 5 5 2 1 1 2 3 3 4 6 6 5 2 3 1 3 4 4 5 7 9 9 9 10 10 10 11 11 11 11 11 11 10 10 10 10 9 9 9 8 8 8 8 8 8
3 1 4 5 5 3 1 1 2 2 5 5 5 6 6 5 3 4 2 3 5 5 5 7 9 9 9 10 10 10 11 11 11 10 10 10 9 9 9 8 8 8 8 8 7 7 7 7 7
2 3 4 4 4 3 2 1 4 5 5 3 4 5 4 3 3 3 3 5 5 5 5 6 9 9 9 10 10 10 10 10 10 10 10 9 9 9 8 8 7 7 7 7 7 6 6 6 6
3 4 5 5 3 1 2 3 5 6 4 5 4 5 4 3 3 4 6 6 6 5 5 6 9 9 9 10 10 10 10 10 9 9 9 9 9 8 8 7 6 6 6 6 6 6 6 6 6
4 4 5 3 1 1 1 3 4 4 3 4 4 5 4 4 5 8 7 6 6 4 4 6 8 9 10 10 10 10 10 9 9 9 8 8 8 7 7 6 6 6 6 6 6 6 6 6 6
4 4 4 2 1 1 2 2 3 4 4 4 5 5 2 1 6 6 6 5 4 4 4 5 7 8 9 10 9 9 9 8 8 7 7 6 6 6 6 6 5 5 5 5 5 5 5 5 5
4 4 4 3 2 1 2 3 3 4 4 3 4 5 3 2 4 6 6 5 4 4 5 5 5 6 7 8 8 8 7 7 6 6 5 5 5 5 5 5 5 5 4 4 4 4 4 4 5
4 4 3 2 3 2 2 3 3 4 4 3 4 6 5 5 5 7 6 5 4 3 3 4 5 6 6 6 6 6 6 6 5 5 4 4 5 5 5 6 5 5 5 5 4 4 4 4 4
3 4 2 4 5 3 3 3 2 3 5 3 2 3 6 10 9 7 5 3 2 2 2 2 3 3 4 4 5 6 6 6 6 6 6 5 5 6 6 6 6 5 5 6 5 5 5 6 6
4 3 4 3 4 5 4 3 4 4 3 3 5 6 9 10 9 8 6 4 3 2 1 0 1 1 3 3 5 5 6 6 6 5 5 5 5 6 6 7 7 7 7 7 7 6 7 7 6
2 3 2 1 3 5 5 3 3 6 3 4 8 10 10 9 7 7 6 5 5 3 2 2 1 0 1 2 3 4 5 5 5 5 5 5 6 6 6 7 7 8 7 7 7 7 7 6 5
1 0 1 2 3 3 5 5 3 3 4 6 9 11 9 9 8 7 6 5 3 3 3 2 2 2 1 2 2 3 3 3 4 5 4 4 4 4 5 5 5 6 5 5 5 5 6 6 6
1 1 2 3 5 4 5 4 3 1 4 8 10 10 9 8 6 5 4 4 4 4 3 3 3 3 2 2 1 2 3 3 4 4 5 5 4 3 3 4 5 5 5 5 4 5 5 5 6
1 3 4 4 5 3 5 2 2 3 7 9 10 9 8 7 6 4 4 4 4 4 4 3 3 3 4 2 2 2 3 4 5 5 5 6 5 4 3 4 5 5 5 5 5 4 4 4 5
3 5 5 3 3 2 6 3 1 4 8 9 8 7 6 5 5 6 6 5 5 4 4 4 4 4 4 3 3 4 4 5 5 5 6 6 6 5 5 3 3 4 5 5 5 5 5 4 5
4 4 2 2 1 2 5 3 3 5 9 8 7 6 5 5 5 4 5 5 5 5 5 5 5 6 5 4 4 4 5 6 5 6 7 7 7 7 6 4 3 5 6 5 4 4 4 5 5
4 2 1 1 1 1 3 4 4 5 8 7 7 6 6 4 4 4 5 5 5 6 6 5 6 6 6 5 6 6 6 6 6 6 7 7 7 7 7 4 4 5 5 4 4 4 3 4 4
2 2 1 1 1 1 2 3 4 6 7 7 7 6 6 6 7 5 5 5 5 5 6 7 6 6 6 5 5 4 5 4 6 6 6 6 7 7 7 5 5 6 4 4 4 5 5 4 4
4 3 1 2 1 2 4 4 6 7 7 7 7 7 8 8 5 4 5 5 5 5 6 6 7 6 5 4 4 3 2 2 3 5 6 7 7 7 7 5 5 5 4 4 4 3 6 5 3
3 2 1 2 0 2 2 3 4 7 8 9 9 9 9 7 4 5 5 5 6 6 6 5 7 7 5 4 3 3 3 2 2 3 6 8 7 7 6 5 4 4 4 5 4 3 3 4 4
2 4 4 2 1 3 2 2 3 5 5 6 7 8 8 10 9 8 6 6 6 7 7 7 7 6 5 5 4 4 4 3 3 4 3 5 6 7 7 6 5 4 4 4 3 3 4 3 4
2 3 4 3 3 1 1 2 6 6 6 8 9 9 9 9 9 8 8 8 8 7 6 7 7 6 5 6 6 6 4 2 1 1 2 4 7 7 7 6 6 5 4 4 3 3 3 3 2
3 2 3 3 3 1 0 2 6 4 8 11 11 11 11 10 11 11 10 10 8 7 7 7 7 6 5 5 6 6 4 2 1 2 3 4 5 6 6 6 6 5 4 4 4 4 4 3 2
5 6 5 4 3 1 4 4 6 6 11 11 12 12 12 12 11 10 9 8 7 6 6 7 7 6 5 6 6 6 7 5 4 3 2 2 3 3 5 6 6 5 4 4 4 4 5 4 4
4 5 3 3 2 4 3 4 8 8 10 13 14 14 13 12 12 11 10 10 9 9 8 8 8 6 6 6 6 6 6 6 5 3 2 2 2 2 3 4 4 4 4 5 5 5 5 4 4
4 6 5 4 3 4 2 6 7 6 7 9 11 11 12 12 12 13 13 12 11 11 9 9 9 7 7 7 6 5 5 4 4 4 3 3 1 1 1 3 4 5 5 5 6 4 4 5 5
5 3 5 5 2 2 5 6 8 3 2 3 7 10 12 13 13 13 13 12 12 12 11 11 10 8 7 7 6 6 5 5 5 4 3 2 1 1 3 4 5 5 6 6 5 5 5 5 5
4 6 4 3 2 2 5 5 4 4 2 3 6 10 11 11 12 12 12 12 12 11 10 9 9 9 7 7 6 6 5 5 5 5 4 3 2 2 4 4 4 4 5 5 5 5 4 6 5
4 4 4 3 3 3 3 6 5 5 5 5 7 9 11 12 13 12 12 11 10 9 9 9 9 8 7 7 6 6 5 5 5 5 4 4 3 3 4 4 4 4 4 4 5 5 5 6 5
5 6 6 4 3 3 2 7 6 5 5 5 6 7 9 11 11 11 11 11 10 11 10 10 9 8 8 7 7 6 6 6 5 5 4 4 4 4 4 4 5 4 4 4 5 5 5 5 5
Wind_Direction
332 11 87 63 56 53 55 343 104 90 68 59 64 77 89 76 76 120 31 107 104 88 92 108 112 110 108 106 103 103 105 104 104 103 101 99 97 96 94 91 87 83 81 78 73 70 67 64 60
333 60 59 62 82 75 331 357 98 104 132 133 76 68 72 70 64 101 110 115 105 99 96 110 112 108 106 103 102 101 103 102 99 98 98 99 98 95 91 88 85 81 78 75 70 64 61 57 52
0 56 78 72 96 150 174 132 114 104 110 99 79 58 72 92 114 130 144 123 98 88 92 111 114 109 107 105 103 100 99 98 97 97 97 97 97 92 88 83 80 76 72 69 66 59 56 52 47
60 45 56 71 90 207 170 145 131 121 86 61 91 70 55 39 140 140 128 116 102 84 90 112 113 112 108 104 102 98 96 96 95 94 93 91 88 85 81 77 73 69 64 61 58 52 49 47 42
58 72 64 58 47 355 90 125 112 96 76 68 89 87 46 0 99 115 116 113 112 94 87 111 115 112 108 105 101 97 95 94 93 89 86 84 81 78 74 69 65 62 58 54 53 47 43 45 43
53 64 87 122 45 26 58 84 96 89 93 93 94 97 69 81 120 125 116 111 106 96 78 88 109 110 106 103 100 97 94 90 86 81 77 74 70 65 61 55 53 52 48 47 48 44 41 40 38
95 91 125 145 136 97 124 100 107 111 103 109 113 101 111 147 142 122 109 102 89 79 68 57 68 83 92 94 93 89 87 83 78 72 65 58 53 45 39 34 34 36 39 37 36 35 37 35 32
111 98 94 139 151 164 121 102 91 102 107 110 109 132 164 181 133 107 97 87 78 68 59 54 54 58 57 60 73 76 74 67 58 50 44 36 27 19 15 13 13 17 22 24 26 26 34 37 36
86 79 150 193 178 167 134 115 84 74 100 85 87 140 152 134 121 112 99 82 79 95 51 53 51 45 39 36 46 47 42 39 38 31 26 26 19 11 6 2 4 9 17 23 32 35 43 48 50
84 129 212 201 173 152 135 120 121 93 88 83 82 91 114 125 134 140 148 162 179 201 229 157 66 34 26 28 37 32 30 30 32 31 29 23 17 13 15 11 15 18 22 30 38 44 49 52 47
116 176 219 114 137 133 127 111 112 125 145 172 151 143 135 138 146 158 170 182 193 199 208 189 184 100 54 30 25 27 29 28 29 32 35 41 37 31 30 28 22 23 29 34 35 46 50 50 49
95 323 143 117 108 115 127 124 127 164 189 162 151 147 146 154 165 175 183 192 184 181 207 198 169 150 123 71 39 37 37 32 32 39 52 62 50 36 29 31 25 29 31 35 41 49 52 50 51
77 47 73 89 79 101 108 118 131 143 123 125 133 141 154 165 171 177 173 179 172 183 202 193 176 162 133 99 57 56 50 53 58 58 60 76 71 46 36 36 37 35 37 42 46 50 51 50 48
122 90 71 67 81 96 114 88 98 138 127 128 141 151 162 169 172 162 165 177 181 185 189 181 163 147 128 116 98 73 66 72 72 67 67 77 82 72 55 45 39 34 36 47 58 59 60 56 56
94 85 56 42 67 102 111 70 172 152 137 142 155 159 168 179 175 180 184 180 178 172 165 157 142 119 119 113 96 85 77 80 70 65 69 75 80 76 68 53 38 31 42 57 64 61 60 60 59
63 75 71 323 69 113 123 181 218 156 148 160 169 169 176 186 186 191 182 174 165 152 150 152 137 123 116 102 93 83 78 76 68 66 67 69 74 78 73 57 37 39 53 59 63 56 62 57 58
43 94 134 314 42 116 137 192 205 171 162 172 182 182 183 189 198 204 189 175 163 153 144 131 123 124 116 103 92 81 73 64 59 61 60 62 67 73 76 61 43 54 59 51 65 57 68 69 66
158 121 127 245 294 131 161 208 195 176 175 183 189 186 190 200 210 201 190 174 154 142 136 127 121 118 113 99 85 70 58 46 47 51 51 58 61 66 73 64 49 57 61 52 59 68 60 65 64
135 129 160 253 236 168 191 205 201 188 185 193 197 194 200 211 215 190 180 161 141 135 137 140 137 137 129 114 104 93 70 32 29 38 46 54 58 62 66 65 53 54 67 66 71 78 68 51 37
132 139 225 289 291 158 195 234 220 197 198 200 199 202 201 197 192 187 175 162 160 160 157 153 153 152 150 131 120 115 109 70 40 30 42 43 52 58 67 66 62 57 70 63 58 73 83 51 36
181 186 200 207 43 48 96 316 245 224 210 209 204 200 197 195 192 188 181 179 172 173 173 170 166 159 154 133 110 88 63 45 32 24 20 21 45 58 64 68 71 64 70 73 62 74 96 94 46
220 216 183 162 121 320 128 243 256 221 213 218 214 203 201 199 191 186 182 182 185 186 175 162 158 158 155 146 140 134 127 118 80 22 23 26 44 53 58 63 66 63 62 65 56 68 88 107 90
187 114 100 104 118 54 61 192 272 209 221 225 217 208 203 198 192 190 189 187 183 176 167 158 150 154 154 151 147 134 127 128 99 64 57 40 33 44 52 61 63 59 56 58 56 60 69 82 107
127 81 67 50 70 267 220 193 267 217 214 215 214 208 199 194 193 191 186 171 167 164 159 151 151 155 154 149 147 149 148 142 125 99 79 48 30 27 42 59 61 61 60 59 61 63 68 71 82
98 99 51 13 360 254 224 210 250 237 217 210 207 204 196 188 186 181 178 174 171 169 167 160 157 162 161 155 158 162 160 155 154 150 135 106 56 29 22 51 57 56 62 68 73 70 64 65 77
162 141 155 189 224 280 258 236 256 262 243 221 206 196 187 185 185 185 184 180 177 175 172 165 165 168 168 165 167 164 160 155 157 158 150 140 127 89 47 68 67 62 66 71 73 69 64 63 68
136 160 161 139 174 266 273 280 298 292 297 213 194 185 188 188 185 185 181 179 178 177 178 174 169 170 174 170 160 158 161 159 161 153 142 136 131 114 87 83 74 66 68 72 75 70 62 65 62
140 142 110 125 160 266 297 283 265 290 276 217 194 192 193 187 185 183 180 180 180 178 175 169 168 172 173 166 163 163 165 165 158 145 146 145 132 104 100 88 81 72 69 73 75 73 66 72 61
126 121 120 125 155 164 288 280 231 230 226 219 211 199 189 185 185 184 180 177 171 165 166 167 169 166 165 165 161 153 157 156 148 147 154 152 139 128 117 109 99 89 79 79 84 78 77 78 66
168 170 153 157 202 180 208 271 271 243 240 223 215 199 188 185 182 177 172 166 166 169 171 171 173 174 173 165 158 156 154 152 153 157 157 151 146 139 130 117 107 100 93 92 97 93 85 86 78
Height
1508 1507 1507 1508 1511 1521 1524 1520 1516 1517 1518 1519 1519 1519 1522 1525 1529 1534 1531 1529 1530 1531 1532 1533 1534 1534 1535 1535 1535 1536 1536 1537 1537 1538 1538 1538 1539 1539 1539 1539 1540 1540 1540 1540 1541 1541 1541 1541 1542
1507 1507 1509 1509 1518 1529 1526 1518 1518 1517 1518 1519 1520 1522 1523 1526 1528 1529 1530 1530 1531 1532 1533 1534 1535 1535 1535 1536 1536 1537 1537 1538 1538 1538 1538 1539 1539 1539 1539 1540 1540 1540 1540 1541 1541 1541 1541 1541 1542
1507 1507 1509 1511 1521 1527 1524 1518 1517 1518 1519 1520 1522 1524 1526 1528 1529 1530 1531 1532 1533 1533 1534 1535 1536 1536 1536 1537 1537 1538 1538 1538 1539 1539 1539 1539 1539 1540 1540 1540 1540 1540 1541 1541 1541 1541 1541 1541 1542
1508 1509 1510 1517 1522 1520 1518 1517 1517 1518 1520 1521 1523 1526 1528 1530 1531 1532 1532 1533 1534 1535 1536 1536 1537 1537 1537 1538 1538 1539 1539 1539 1540 1540 1540 1540 1540 1540 1541 1541 1541 1541 1541 1541 1541 1541 1541 1542 1542
1508 1509 1515 1522 1521 1518 1516 1517 1517 1518 1521 1523 1524 1527 1530 1532 1533 1533 1534 1535 1536 1537 1537 1538 1538 1539 1539 1540 1540 1540 1541 1541 1541 1541 1541 1541 1541 1541 1541 1541 1541 1541 1541 1541 1541 1542 1542 1542 1542
1509 1510 1523 1527 1522 1518 1517 1518 1519 1520 1522 1524 1525 1528 1532 1533 1534 1535 1536 1537 1538 1539 1539 1540 1540 1541 1541 1541 1542 1542 1542 1543 1543 1543 1543 1543 1543 1542 1542 1542 1542 1542 1542 1542 1542 1542 1542 1543 1543
1511 1515 1522 1523 1523 1520 1519 1519 1520 1521 1523 1525 1526 1529 1532 1534 1536 1537 1538 1539 1540 1541 1541 1541 1542 1543 1543 1544 1544 1544 1544 1544 1544 1544 1544 1544 1544 1544 1544 1543 1543 1543 1543 1543 1543 1543 1543 1543 1544
1510 1515 1521 1523 1523 1521 1519 1520 1521 1522 1524 1526 1527 1529 1532 1535 1537 1538 1539 1541 1542 1542 1543 1543 1544 1545 1545 1545 1546 1546 1546 1546 1546 1546 1546 1545 1545 1545 1545 1544 1544 1544 1544 1544 1544 1544 1544 1544 1545
1511 1519 1524 1522 1521 1519 1519 1520 1522 1523 1525 1527 1528 1529 1532 1535 1537 1539 1540 1542 1543 1544 1545 1545 1546 1546 1547 1547 1548 1548 1548 1548 1547 1547 1547 1547 1547 1546 1546 1545 1545 1545 1545 1545 1545 1545 1545 1545 1546
1512 1521 1519 1515 1515 1516 1518 1520 1522 1524 1526 1528 1529 1531 1533 1536 1538 1540 1541 1543 1544 1546 1547 1547 1548 1548 1549 1549 1549 1549 1549 1549 1549 1549 1549 1548 1548 1548 1547 1547 1546 1546 1546 1546 1546 1546 1546 1547 1547
1512 1516 1514 1514 1514 1516 1518 1521 1522 1524 1527 1527 1528 1531 1534 1537 1539 1541 1543 1544 1546 1547 1548 1549 1550 1550 1551 1551 1551 1551 1551 1551 1550 1550 1550 1549 1549 1549 1548 1548 1547 1547 1547 1547 1547 1547 1548 1548 1548
1513 1513 1513 1514 1515 1517 1518 1521 1523 1524 1526 1527 1529 1532 1535 1537 1540 1542 1544 1545 1547 1548 1550 1550 1551 1552 1552 1552 1553 1553 1552 1552 1552 1551 1551 1551 1550 1550 1549 1549 1549 1549 1549 1549 1549 1549 1549 1549 1550
1514 1515 1515 1515 1516 1518 1520 1522 1523 1525 1526 1528 1531 1534 1536 1539 1541 1544 1545 1547 1548 1549 1551 1552 1552 1553 1554 1554 1554 1554 1554 1553 1553 1553 1552 1552 1551 1551 1551 1550 1550 1550 1550 1550 1550 1550 1550 1551 1551
1515 1515 1516 1517 1518 1520 1522 1524 1525 1526 1527 1530 1532 1535 1537 1540 1542 1544 1546 1547 1549 1550 1552 1553 1553 1554 1555 1555 1555 1555 1555 1555 1554 1554 1553 1553 1553 1552 1552 1551 1551 1551 1551 1551 1551 1551 1552 1552 1552
1515 1517 1519 1520 1520 1522 1524 1528 1527 1527 1529 1531 1533 1536 1538 1541 1543 1545 1546 1548 1550 1551 1552 1554 1554 1555 1556 1556 1556 1556 1556 1556 1555 1555 1555 1554 1554 1553 1553 1552 1552 1552 1552 1552 1552 1553 1553 1554 1554
1517 1522 1527 1523 1521 1523 1527 1534 1528 1528 1530 1532 1534 1537 1539 1541 1543 1546 1547 1549 1550 1552 1553 1554 1555 1556 1557 1557 1558 1557 1557 1557 1557 1556 1556 1555 1555 1554 1554 1553 1553 1553 1553 1553 1553 1554 1555 1555 1555
1525 1530 1530 1526 1522 1523 1526 1531 1528 1529 1530 1532 1534 1537 1539 1541 1544 1546 1548 1549 1551 1553 1554 1555 1556 1557 1558 1559 1559 1559 1559 1558 1558 1558 1557 1557 1556 1556 1555 1555 1554 1554 1554 1554 1555 1555 1556 1556 1557
1530 1530 1530 1529 1524 1524 1527 1528 1527 1528 1530 1532 1534 1536 1539 1541 1543 1546 1548 1550 1552 1553 1555 1556 1557 1558 1559 1560 1560 1560 1560 1560 1559 1559 1559 1558 1558 1557 1557 1556 1556 1556 1556 1556 1556 1557 1557 1558 1558
1524 1528 1531 1528 1523 1525 1527 1527 1527 1527 1530 1531 1533 1535 1537 1540 1543 1545 1548 1550 1552 1554 1555 1557 1558 1559 1560 1560 1561 1561 1561 1561 1561 1560 1560 1560 1559 1559 1558 1557 1557 1557 1557 1557 1558 1558 1558 1559 1560
1524 1528 1530 1527 1523 1525 1528 1528 1526 1526 1527 1529 1531 1533 1535 1538 1541 1544 1547 1549 1551 1553 1555 1557 1558 1559 1561 1561 1562 1562 1562 1562 1562 1562 1562 1561 1561 1560 1560 1559 1559 1559 1559 1559 1559 1559 1560 1560 1561
1525 1528 1528 1528 1526 1526 1529 1532 1528 1526 1526 1528 1529 1531 1534 1536 1539 1543 1546 1548 1551 1553 1555 1557 1559 1560 1561 1562 1563 1563 1563 1563 1563 1563 1563 1563 1562 1562 1561 1561 1561 1561 1561 1560 1560 1561 1561 1561 1562
1527 1522 1523 1526 1532 1537 1533 1543 1531 1526 1525 1525 1526 1529 1531 1534 1537 1541 1544 1547 1550 1553 1555 1557 1559 1561 1562 1563 1564 1564 1564 1564 1565 1565 1564 1564 1564 1564 1563 1563 1563 1562 1562 1562 1562 1562 1562 1563 1563
1523 1521 1524 1527 1532 1538 1536 1541 1534 1525 1526 1522 1522 1524 1527 1531 1535 1538 1542 1546 1549 1552 1555 1557 1559 1561 1562 1563 1564 1565 1565 1566 1566 1566 1566 1566 1566 1565 1565 1565 1564 1564 1564 1564 1564 1564 1564 1564 1564
1520 1525 1529 1533 1537 1545 1537 1541 1536 1525 1518 1516 1517 1520 1523 1528 1532 1536 1540 1544 1548 1551 1554 1556 1559 1561 1562 1564 1565 1566 1566 1567 1567 1567 1567 1567 1567 1567 1567 1567 1566 1566 1566 1565 1565 1565 1565 1565 1565
1522 1533 1545 1547 1550 1546 1534 1536 1529 1512 1508 1508 1510 1514 1519 1524 1528 1533 1537 1541 1546 1549 1552 1555 1558 1560 1562 1564 1565 1566 1567 1568 1568 1568 1568 1569 1569 1569 1569 1568 1568 1568 1568 1567 1567 1567 1566 1566 1566
1524 1530 1545 1551 1552 1545 1535 1535 1519 1505 1503 1503 1506 1510 1515 1520 1524 1529 1534 1538 1543 1547 1551 1554 1557 1559 1562 1563 1565 1566 1567 1568 1569 1569 1570 1570 1570 1570 1570 1570 1570 1570 1569 1569 1569 1568 1568 1568 1568
1525 1529 1529 1540 1541 1545 1538 1528 1513 1502 1501 1501 1503 1507 1511 1516 1521 1526 1531 1536 1541 1545 1549 1553 1556 1559 1561 1563 1565 1566 1568 1569 1569 1570 1571 1571 1571 1571 1571 1571 1571 1571 1571 1571 1570 1570 1569 1569 1569
1519 1524 1533 1538 1545 1548 1538 1530 1521 1507 1503 1501 1502 1504 1508 1512 1518 1523 1528 1533 1538 1543 1547 1551 1555 1558 1560 1563 1565 1566 1568 1569 1570 1571 1571 1572 1572 1572 1572 1573 1573 1572 1572 1572 1572 1571 1571 1571 1570
1522 1525 1530 1536 1538 1545 1545 1532 1506 1503 1500 1500 1500 1502 1505 1509 1514 1519 1525 1530 1536 1541 1545 1549 1553 1557 1559 1562 1564 1566 1567 1569 1570 1571 1572 1572 1573 1573 1573 1573 1573 1573 1573 1573 1573 1573 1572 1572 1572
1514 1519 1526 1535 1538 1539 1540 1530 1498 1498 1497 1497 1498 1499 1502 1507 1511 1517 1522 1527 1533 1538 1543 1547 1551 1555 1558 1561 1563 1565 1567 1569 1570 1571 1572 1572 1573 1574 1574 1574 1574 1574 1574 1574 1574 1574 1574 1574 1573